Location: Geyikbay?r?
(36.8756°N, 30.4583°E)
Time: 18:15:37
(UTC+00:00)

ATLAS 5 CENTAUR R/B - Pass Details

Date: 25 April 2026
Orbit: 360 x 1064 km, 63.3° (Epoch: 12 May)

Event Time Altitude Azimuth Distance (km) Brightness Sun altitude
Rises 20:11:33 0° 329° (NNW) 2,792 6.0 -34.0°
Reaches altitude 10° 20:13:36 10° 331° (NNW) 1,990 5.0 -34.2°
Enters shadow 20:15:27 26° 335° (NNW) 1,308 3.7 -34.4°
